GW3674 Weather Reports


time (UTC)temp
C
wind
direction
speed
KPH
gust
KPH
rain 1hr
cm
rain 24hr
cm
rain mn
cm
humidity
%
barometer
mb
20260509111510 16 13 0.0 0.0 0.00 0.00 0.00 79 1013.7
20260509110010 16 13 0.0 0.0 0.00 0.00 0.00 79 1013.6
20260509104510 16 13 0.0 1.6 0.00 0.00 0.00 80 1013.3
20260509103009 16 13 0.0 0.0 0.00 0.00 0.00 80 1013.1
20260509101513 16 13 0.0 0.0 0.00 0.00 0.00 81 1013.1
20260509100015 16 13 0.0 0.0 0.00 0.00 0.00 81 1013.1
20260509094515 16 13 0.0 0.0 0.00 0.00 0.00 81 1013.1
20260509093014 17 13 0.0 0.0 0.00 0.00 0.00 81 1013.4
20260509091526 17 13 0.0 1.6 0.00 0.00 0.00 81 1013.4
20260509090012 17 13 0.0 0.0 0.00 0.00 0.00 81 1013.4
20260509084520 16 13 0.0 1.6 0.00 0.00 0.00 81 1013.5
20260509083018 16 13 0.0 0.0 0.00 0.00 0.00 82 1013.3
20260509081516 16 13 0.0 3.2 0.00 0.00 0.00 82 1012.7
20260509080024 16 13 0.0 3.2 0.00 0.00 0.00 82 1014.1
20260509074515 16 13 0.0 1.6 0.00 0.00 0.00 82 1013.9
20260509073035 16 13 0.0 1.6 0.00 0.00 0.00 83 1013.7
20260509071518 16 13 0.0 1.6 0.00 0.00 0.00 83 1013.7
20260509070021 17 13 0.0 3.2 0.00 0.00 0.00 83 1013.7
20260509064521 17 13 0.0 4.8 0.00 0.00 0.00 83 1013.9
20260509063016 17 92 1.6 4.8 0.00 0.00 0.00 83 1014.2
20260509061524 17 93 0.0 3.2 0.00 0.00 0.00 83 1014.4
20260509060007 17 5 0.0 4.8 0.00 0.00 0.00 83 1014.9
20260509054515 17 130 0.0 1.6 0.00 0.00 0.00 83 1014.7
20260509053014 17 130 1.6 4.8 0.00 0.00 0.00 83 1014.6
20260509051504 17 128 0.0 1.6 0.00 0.00 0.00 83 1014.9
20260509050006 17 128 0.0 3.2 0.00 0.00 0.00 83 1015.6
20260509044504 17 128 0.0 1.6 0.00 0.00 0.00 82 1015.4
20260509043022 17 128 0.0 3.2 0.00 0.00 0.00 82 1015.9
20260509041518 17 128 0.0 1.6 0.00 0.00 0.00 82 1015.9
20260509040005 17 128 0.0 1.6 0.00 0.00 0.00 82 1016.0
20260509034511 17 128 0.0 1.6 0.00 0.00 0.00 82 1016.1
20260509033010 17 128 0.0 1.6 0.00 0.00 0.00 81 1016.2
20260509031513 17 128 0.0 1.6 0.00 0.03 0.00 81 1016.4
20260509030016 17 128 0.0 1.6 0.00 0.03 0.00 80 1016.6
20260509024504 17 128 0.0 3.2 0.00 0.03 0.00 80 1016.4
20260509023012 17 128 0.0 1.6 0.00 0.03 0.00 80 1016.3
20260509021518 17 128 0.0 1.6 0.00 0.03 0.00 79 1016.2
20260509020014 18 128 0.0 3.2 0.00 0.03 0.00 78 1016.5
20260509014518 18 140 0.0 1.6 0.00 0.03 0.00 77 1016.1
20260509013013 18 140 0.0 3.2 0.00 0.03 0.00 76 1015.9
20260509011508 18 140 0.0 1.6 0.00 0.03 0.00 76 1016.2
20260509010022 18 144 0.0 1.6 0.00 0.03 0.00 75 1015.8
20260509004533 18 128 0.0 4.8 0.00 0.03 0.00 74 1015.8
20260509003027 18 101 0.0 3.2 0.00 0.03 0.00 73 1015.5
20260509001506 18 101 1.6 3.2 0.00 0.03 0.00 71 1015.8
20260509000008 18 101 0.0 3.2 0.00 0.03 0.00 70 1015.5
20260508234518 18 101 0.0 4.8 0.00 0.03 0.00 69 1015.1
20260508233018 19 125 0.0 3.2 0.00 0.03 0.00 68 1015.0
20260508231525 19 125 0.0 4.8 0.00 0.03 0.00 67 1015.1
20260508230023 20 144 0.0 6.4 0.00 0.03 0.00 67 1015.3
20260508224510 20 161 1.6 9.7 0.00 0.03 0.00 66 1015.4
20260508223022 20 117 0.0 9.7 0.00 0.03 0.00 67 1015.1
20260508221522 20 95 1.6 14.5 0.00 0.03 0.00 67 1014.9
20260508220023 20 93 1.6 6.4 0.00 0.03 0.00 65 1015.3
20260508214526 20 173 1.6 9.7 0.00 0.03 0.00 64 1015.0
20260508213012 21 169 4.8 16.1 0.00 0.03 0.00 62 1015.2
20260508211518 21 114 1.6 14.5 0.00 0.03 0.00 62 1015.1
20260508210029 22 183 3.2 12.9 0.00 0.03 0.00 60 1015.2
20260508204526 22 157 4.8 16.1 0.00 0.03 0.00 59 1014.7
20260508203025 23 79 3.2 11.3 0.00 0.05 0.00 52 1014.9
20260508201504 23 109 1.6 4.8 0.00 0.05 0.00 49 1014.6
20260508200028 23 94 1.6 8.0 0.00 0.23 0.00 47 1015.0
20260508194505 23 65 3.2 6.4 0.00 0.38 0.00 49 1015.4
20260508193010 23 16 1.6 6.4 0.00 0.41 0.00 50 1015.7
20260508191505 22 43 1.6 8.0 0.00 0.46 0.00 52 1015.5
20260508190004 22 309 3.2 11.3 0.00 0.61 0.00 49 1015.7
20260508184504 22 360 3.2 9.7 0.00 0.89 0.00 48 1015.9
20260508183008 22 125 3.2 6.4 0.00 0.91 0.00 48 1016.1
20260508181523 22 213 3.2 9.7 0.00 0.91 0.00 48 1016.1
20260508180004 22 310 0.0 14.5 0.00 0.91 0.00 53 1016.4
20260508174506 22 44 1.6 6.4 0.00 0.91 0.00 50 1016.6
20260508173003 22 25 1.6 8.0 0.00 0.91 0.00 52 1016.9
20260508171509 21 264 4.8 9.7 0.00 0.91 0.00 51 1016.9
20260508170016 21 95 3.2 11.3 0.00 0.91 0.00 50 1017.3
20260508164503 21 156 3.2 11.3 0.00 0.91 0.00 51 1017.3
20260508163003 21 328 8.0 12.9 0.00 0.91 0.00 51 1017.3
20260508161507 20 64 1.6 11.3 0.00 0.91 0.00 54 1017.8
20260508160015 20 98 3.2 9.7 0.00 0.91 0.00 52 1017.9
20260508154514 20 60 3.2 9.7 0.00 0.91 0.00 54 1018.2
20260508153004 20 329 4.8 12.9 0.00 0.91 0.00 55 1018.3
20260508151510 20 326 6.4 17.7 0.00 0.91 0.00 58 1018.3
20260508150011 20 86 1.6 8.0 0.00 0.91 0.00 61 1018.3
20260508144536 18 161 1.6 17.7 0.00 0.91 0.00 61 1018.3
20260508143018 18 53 3.2 9.7 0.00 0.91 0.00 63 1018.2
20260508141504 18 88 3.2 9.7 0.00 0.91 0.00 63 1017.9
20260508140010 18 5 3.2 16.1 0.00 0.91 0.00 67 1018.0
20260508134514 17 38 4.8 11.3 0.00 0.91 0.00 71 1017.8
20260508133023 17 82 3.2 9.7 0.00 0.91 0.00 75 1017.6
20260508131521 16 63 3.2 8.0 0.00 0.91 0.00 79 1017.5
20260508130026 16 60 1.6 8.0 0.00 0.91 0.00 82 1017.4
20260508124507 15 13 0.0 8.0 0.00 0.91 0.00 84 1017.2
20260508123014 15 5 0.0 6.4 0.00 0.91 0.00 81 1017.0
20260508121520 15 27 1.6 6.4 0.00 0.91 0.00 81 1016.9
20260508120022 14 57 0.0 4.8 0.00 0.91 0.00 80 1016.7
20260508114526 14 59 0.0 8.0 0.00 0.91 0.00 80 1016.4
20260508113012 14 51 0.0 3.2 0.00 0.91 0.00 79 1016.3